Regional Weather Roundup
Issued by NWS

Home | Current Version | Previous Version | Graphics & Text | Print | Product List | Glossary On
Versions: 1 2 3 4 5 6 7 8 9 10 11 12 13 14 15 16 17 18 19 20 21 22 23 24 25 26 27
000
ASUS45 KBOU 170907
RWRCO

WEATHER ROUNDUP FOR COLORADO
NATIONAL WEATHER SERVICE DENVER/BOULDER CO
200 AM MST TUE JAN 17 2017

NOTE: "FAIR" INDICATES FEW OR NO CLOUDS BELOW 12000 FEET WITH NO
SIGNIFICANT WEATHER AND/OR OBSTRUCTIONS TO VISIBILITY.

COZ001>005-013-030-031-171000-
...NORTHWEST COLORADO...

CITY           SKY/WX    TMP DP  RH WIND       PRES   REMARKS
CRAIG          CLOUDY    15  10  80 SW7       30.20R WCI   5
HAYDEN         CLOUDY    16  10  79 CALM      30.17R
MEEKER         CLOUDY    18  12  77 CALM      30.17R
MOUNT WERNER   NOT AVBL
STEAMBOAT SPGS CLOUDY    17  15  93 CALM      30.16R
WALDEN           N/A    N/A N/A N/A CALM      30.13R VSB 1/4
$$

COZ006>008-011-171000-
...WEST CENTRAL VALLEYS...

CITY           SKY/WX    TMP DP  RH WIND       PRES   REMARKS
GRAND JUNCTION FAIR      27  21  78 CALM      30.16R
MONTROSE       CLOUDY    31  26  82 SE6       30.16R WCI  25
EAGLE          CLOUDY    24  21  88 CALM      30.16R
RIFLE          FAIR      20  18  92 E3        30.18R
DELTA          CLOUDY    35  29  79 CALM      30.16R
NUCLA          CLOUDY    32  27  80 E3        30.16R
$$

COZ017>023-064>068-171000-
...SOUTHWEST COLORADO...

CITY           SKY/WX    TMP DP  RH WIND       PRES   REMARKS
DURANGO        CLOUDY    31  29  92 CALM      30.10R FOG
CORTEZ         CLOUDY    34  34 100 CALM      30.10R
PAGOSA SPRINGS FLURRIES  32  32 100 CALM      30.11R
TELLURIDE      CLOUDY    22  21  96 CALM      30.10R
WOLF CREEK PAS CLOUDY    18  18 100 SW8       30.14S WCI   7
$$

COZ009-010-012-014-032>034-037-058>063-171000-
...CENTRAL COLORADO...

CITY           SKY/WX    TMP DP  RH WIND       PRES   REMARKS
ASPEN          FAIR      26  20  77 SE7       30.09R WCI  18
BUENA VISTA    CLOUDY    28  26  92 SE5       30.10R WCI  22
COPPER MTN     FAIR      23  18  80 W5        30.09R WCI  17
BERTHOUD PASS  NOT AVBL
COTTONWOOD PAS CLOUDY   N/A N/A N/A CALM      30.09R
GUNNISON       FLURRIES  24  23  96 N3        30.11S
KREMMLING      CLOUDY    14  10  85 CALM      30.16R
LEADVILLE      FOG       22  20  92 CALM      30.08R VSB 3/4
MONARCH PASS   CLOUDY    18  14  86 MISG      30.19S
SALIDA         CLOUDY    29  28  95 CALM      30.17S
SUNLIGHT       FAIR      21  19  93 S6        30.13R FOG     WCI  14
WILKERSON PASS MOCLDY   N/A N/A N/A W7        30.09S FOG
$$

COZ069>075-171000-
...SAN LUIS VALLEY/SANGRE DE CRISTO MOUNTAINS...

CITY           SKY/WX    TMP DP  RH WIND       PRES   REMARKS
ALAMOSA        CLOUDY    26  25  96 SW6       30.09S WCI  19
LA VETA PASS   LGT SNOW  23  21  93 NE7       30.08S WCI  15
SAGUACHE       FLURRIES  28  27  93 SE5       30.10R WCI  23
$$

COZ035-036-038>040-171000-
...NORTHERN COLORADO FRONT RANGE...

CITY           SKY/WX    TMP DP  RH WIND       PRES   REMARKS
DENVER INTL AP FAIR      19  13  77 S12       30.07S WCI   7
DMNS CITY PARK   N/A     24  23  93 E7        30.08S WCI  16
AURORA         PTCLDY    21  18  86 S8        30.07S WCI  12
FRONT RANGE AP FAIR      23  18  80 S6        30.08S WCI  16
ERIE MUNI ARPT FAIR      20  19  96 S3        30.09S FOG
BOULDER MUN AP FAIR      28  27  93 CALM      30.09R
CENTENNIAL     FAIR      21  17  84 CALM      30.06S
BROOMFIELD     FAIR      30  27  86 NW9       30.08R WCI  22
FORT COLLINS   FAIR      21  19  93 CALM      30.10R
LONGMONT       FAIR      22  20  92 CALM      30.11S
$$

COZ041-046-047-076>085-087-088-171000-
...PIKES PEAK/PALMER DIVIDE AND SOUTHERN FOOTHILLS...

CITY           SKY/WX    TMP DP  RH WIND       PRES   REMARKS
COLO. SPRINGS  FOG       29  28  96 SE8       30.10S VSB 1/4 WCI  21
A. F. ACADEMY  CLOUDY    23  20  89 N6        30.08S WCI  16
SCHRIEVER AFB  NOT AVBL
ELLICOTT       FRZ RAIN N/A N/A N/A W7        30.09S
FALCON         FOG       27  27  99 SW5       30.09R VSB 1/4 WCI  22
FORT CARSON    MOCLDY    30  28  93 SW7       30.10F WCI  23
LIMON          MOCLDY    22  17  81 N7        30.10R WCI  13
MONUMENT HILL  FAIR      21  19  93 SW6       30.08S WCI  14
TRINIDAD       FOG       26  23  88 SW3       30.12F VSB<1/4
$$

COZ042>045-048>051-090-091-171000-
...NORTHEAST COLORADO...

CITY           SKY/WX    TMP DP  RH WIND       PRES   REMARKS
GREELEY ARPT   FAIR      20  17  88 NW7       30.11S WCI  11
AKRON          FAIR      19  13  77 W9        30.08S WCI   8
BURLINGTON     MOCLDY    27  21  78 W9        30.10S WCI  18
WRAY           FAIR      21  18  86 W7        30.10S WCI  13
STERLING       FAIR      18  14  86 SW8       30.09R WCI   7
HOLYOKE        FAIR      19  12  73 W10       30.09R WCI   8
FORT MORGAN    FAIR      22  15  73 W8        30.10S WCI  13
$$

COZ086-089-092>099-171000-
...SOUTHEAST COLORADO...

CITY           SKY/WX    TMP DP  RH WIND       PRES   REMARKS
PUEBLO         CLOUDY    33  31  92 CALM      30.13S
LA JUNTA       CLOUDY    33  31  92 SW7       30.14F FOG     WCI  27
LAMAR          CLOUDY    33  31  92 SW3       30.13S
SPRINGFIELD      N/A     31  31 100 NW13      30.11S WCI  21
$$




USA.gov is the U.S. government's official web portal to all federal, state and local government web resources and services.